Lexington Weather

Lexington, Massachusetts, USA

34°F
4/16/2021 10:45am 
  • Lexington Conditions: Snow, Fog, Overcast
  • Temperature: 34.2°F / 1.2°CWarmer 0.4°F than last hour.
  • Dew Point: 32.9°FIncreased 0.4°Fsince last hour.
  • Relative Humidity: 95
  • Wind: Wind from N N 1 mph, 10-min avg: Calm, gust: 2 mph
  • Barometer: 29.48 in Steady
  • Visibility: ½ mile
  • Snow Today: 1.3 in
  •   

Regional Weather Roundup
for Boston / Norton, MA

        
000
ASUS41 KBOX 110604
RWRBOX

REGIONAL WEATHER ROUNDUP
NATIONAL WEATHER SERVICE BOSTON/NORTON MA
200 AM EDT SUN APR 11 2021

NOTE:  "FAIR" INDICATES FEW OR NO CLOUDS BELOW 12,000 FEET WITH NO 
SIGNIFICANT WEATHER AND/OR OBSTRUCTIONS TO VISIBILITY.

MAZALL-110700-
EASTERN MASSACHUSETTS
  
CITY           SKY/WX    TMP DP  RH WIND       PRES   REMARKS
BOSTON         CLEAR     60  51  72 SW12      29.72F                  
6HR MIN TEMP:  58; 6HR MAX TEMP:  69;                                

BEVERLY        NOT AVBL                                               
LAWRENCE       CLEAR     58  52  80 S5        29.72F                  
BEDFORD        CLEAR     58  51  78 SW6       29.71F                  
BLUE HILL        N/A     53  50  89 SW14      29.72F                  
NORWOOD        CLEAR     54  49  83 S3        29.73F                  
MARSHFIELD     PTCLDY    55  54  94 SW10G17   29.72S                  
PLYMOUTH       PTCLDY    52  49  89 SW8       29.74F                  
TAUNTON        CLEAR     52  49  89 SW3       29.74F                  
NEW BEDFORD    CLOUDY    52  51  97 SW5       29.75S                  
$$

MAZALL-110700-
CAPE COD AND THE ISLANDS
  
CITY           SKY/WX    TMP DP  RH WIND       PRES   REMARKS
FALMOUTH       FOG       48  48 100 SW14      29.75F VSB 1/2          
HYANNIS        CLOUDY    53  51  93 SW12      29.73F                  
CHATHAM        FOG       48  47  96 SW8       29.75F VSB 1/2          
PROVINCETOWN   PTCLDY    47  46  97 S12       29.74F                  
NANTUCKET      FOG       46  46 100 SW7       29.76F VSB 1/2          
MARTHAS VNYRD  CLOUDY    52  52 100 SW8       29.76F FOG              
$$
 
MAZALL-110700-
CENTRAL AND WESTERN MASSACHUSETTS
  
CITY           SKY/WX    TMP DP  RH WIND       PRES   REMARKS
WORCESTER      PTCLDY    55  50  83 SW12      29.73F                  
6HR MIN TEMP:  55; 6HR MAX TEMP:  64;                                

FITCHBURG      CLEAR     59  53  80 NW9       29.72F                  
ORANGE         PTCLDY    50  49  96 SW3       29.75F                  
SPRINGFIELD    MOCLDY    54  52  92 S3        29.73F                  
WESTFIELD      MOCLDY    54  51  90 CALM      29.74F                  
NORTH ADAMS    CLEAR     52  47  83 CALM      29.73F                  
PITTSFIELD     PTCLDY    52  50  93 CALM      29.73F                  
$$
 
RIZALL-110700-
RHODE ISLAND
  
CITY           SKY/WX    TMP DP  RH WIND       PRES   REMARKS
PROVIDENCE     CLOUDY    55  53  93 SW5       29.75F                  
6HR MIN TEMP:  53; 6HR MAX TEMP:  60;                                

NEWPORT        FOG       51  51 100 SW5       29.75F VSB 1/4          
BLOCK ISLAND   LGT RAIN  49  49 100 W9        29.76F VSB 1/2          
SMITHFIELD     PTCLDY    53  53 100 SW5       29.74F                  
WESTERLY       FOG       49  49 100 W3        29.76F VSB 1/4          
$$
 
CTZALL-110700-
CONNECTICUT
  
CITY           SKY/WX    TMP DP  RH WIND       PRES   REMARKS
BRADLEY INTL   CLOUDY    54  50  86 S7        29.74F                  
6HR MIN TEMP:  54; 6HR MAX TEMP:  66;                                

HARTFORD       CLOUDY    54  50  86 S5        29.74F                  
BRIDGEPORT     FOG       53  51  93 SW5       29.76S VSB 1/4          
DANBURY        CLOUDY    53  50  89 CALM      29.76F                  
GROTON         FOG       51  51 100 CALM      29.75F VSB 1/4          
NEW HAVEN      FOG       54  53  97 CALM      29.76F VSB 1/4          
CHESTER        FOG       54  54 100 CALM      29.76F VSB<1/4          
MERIDEN        CLOUDY    51  49  92 S5        29.75F                  
WILLIMANTIC    CLOUDY    51  49  92 CALM      29.75F                  
OXFORD         CLOUDY    50  50 100 SW5       29.77F FOG              
$$

MEZ002-015-021-024-NHZ003-005-008-011-012-014-VTZ005-008-110700-
NORTHERN NEW ENGLAND
  
CITY           SKY/WX    TMP DP  RH WIND       PRES   REMARKS
PORTLAND ME    CLOUDY    47  44  90 NE9       29.78R                  
6HR MIN TEMP:  46; 6HR MAX TEMP:  55;                                

BANGOR ME      CLOUDY    44  39  82 E12       29.83S                  
CONCORD NH     CLEAR     52  47  83 NE5       29.71S                  
MANCHESTER NH  CLEAR     59  50  72 CALM      29.70S                  
NASHUA NH      CLEAR     54  53  97 CALM      29.72S                  
PORTSMOUTH NH  MOCLDY    49  45  88 N14       29.75R                  
JAFFREY NH     CLEAR     52  50  93 S3        29.75S                  
KEENE NH       CLEAR     50  49  96 CALM      29.73F                  
BURLINGTON VT  CLEAR     54  47  77 E3        29.70F                  
MT. WASHINGTON NOT AVBL                                               
$$

NYZ052-076-110700-
EASTERN NEW YORK
  
CITY           SKY/WX    TMP DP  RH WIND       PRES   REMARKS
ALBANY         CLOUDY    59  53  80 S5        29.71F                  
6HR MIN TEMP:  59; 6HR MAX TEMP:  68;                                

NEW YORK CITY  FOG       55  52  89 SE5       29.75F VSB 1/4          
6HR MIN TEMP:  55; 6HR MAX TEMP:  59;                                

$$
 
ANZALL-110700-
MARINE OBSERVATIONS
  
STATION/POSITION TIME  TEMP    WIND        PRES    VSBY  WAVE
                       AIR SEA DIR/SP/G                  HT/PER
                 (UTC) (F)     (DEG/KT/KT) (MB)    (MI)  (FT/S)
BOSTON BUOY      0550   49 45  250/  8/ 10 1006.4F         3/10
BUZZARDS BAY     0500          250/ 10/ 12 1009.3F
NANTUCKET SOUND  0550      47                N/A           1/ 3
MASS BAY-STELLWA 0504   50     220/ 12/ 14 1004.6F  1 7/8  3/11
ISLE OF SHOALS   0500   46      20/ 21/ 23 1005.6S
S OF BLOCK IS    0526      46                N/A           3/11
$$

......................KEY.........................
  SKY/WX - SKY CONDITION/PRESENT WEATHER
  TMP    - TEMPERATURE IN FAHRENHEIT
  DWPT   - DEWPOINT IN FAHRENHEIT
  RH     - RELATIVE HUMIDITY IN PERCENT
  WIND   - DIRECTION AND SPEED IN MPH
  PRES   - MEAN SEA LEVEL PRESSURE IN INCHES OF HG
  WCI    - WIND CHILL INDEX
  VSB    - VISIBILITY IN MILES
  HX     - HEAT INDEX
  TC     - TEMPERATURE IN CELSIUS
  VRB    - VARIABLE WIND DIRECTION
  N/A    - NOT AVAILABLE
  
      

Other recent Regional Weather Roundups

Fri Apr 16, 10:05am

Fri Apr 16, 9:04am

Fri Apr 16, 8:04am

Fri Apr 16, 7:04am

Fri Apr 16, 6:04am

Fri Apr 16, 5:04am

Fri Apr 16, 4:04am

Fri Apr 16, 3:04am

Fri Apr 16, 2:04am

Fri Apr 16, 1:04am

Fri Apr 16, 12:04am

Thu Apr 15, 11:05pm

Thu Apr 15, 10:04pm

Thu Apr 15, 9:04pm

Thu Apr 15, 8:04pm

Thu Apr 15, 7:05pm

Thu Apr 15, 6:04pm

Thu Apr 15, 5:05pm

Thu Apr 15, 4:04pm

Thu Apr 15, 3:05pm

Thu Apr 15, 2:04pm

Thu Apr 15, 1:05pm

Thu Apr 15, 12:04pm

Thu Apr 15, 11:04am

Thu Apr 15, 10:05am

Thu Apr 15, 9:04am

Thu Apr 15, 8:04am

Thu Apr 15, 7:04am

Thu Apr 15, 6:04am

Thu Apr 15, 5:04am

Thu Apr 15, 4:04am

Thu Apr 15, 3:04am

Thu Apr 15, 2:04am

Thu Apr 15, 1:04am

Thu Apr 15, 12:04am

Wed Apr 14, 11:04pm

Wed Apr 14, 10:04pm

Wed Apr 14, 9:04pm

Wed Apr 14, 8:04pm

Wed Apr 14, 7:04pm

Wed Apr 14, 6:04pm

Wed Apr 14, 5:05pm

Wed Apr 14, 4:04pm

Wed Apr 14, 3:05pm

Wed Apr 14, 2:04pm

Wed Apr 14, 1:05pm

Wed Apr 14, 12:04pm

Wed Apr 14, 11:04am

Wed Apr 14, 10:04am

Wed Apr 14, 9:04am

Wed Apr 14, 8:04am

Wed Apr 14, 7:04am

Wed Apr 14, 6:04am

Wed Apr 14, 5:04am

Wed Apr 14, 4:04am

Wed Apr 14, 3:04am

Wed Apr 14, 2:04am

Wed Apr 14, 1:04am

Wed Apr 14, 12:04am

Tue Apr 13, 11:04pm

Tue Apr 13, 10:05pm

Tue Apr 13, 9:05pm

Tue Apr 13, 8:05pm

Tue Apr 13, 7:04pm

Tue Apr 13, 6:04pm

Tue Apr 13, 5:05pm

Tue Apr 13, 4:04pm

Tue Apr 13, 3:04pm

Tue Apr 13, 2:05pm

Tue Apr 13, 1:04pm

Tue Apr 13, 12:05pm

Tue Apr 13, 11:05am

Tue Apr 13, 10:04am

Tue Apr 13, 9:04am

Tue Apr 13, 8:04am

Tue Apr 13, 7:04am

Tue Apr 13, 6:04am

Tue Apr 13, 5:04am

Tue Apr 13, 4:04am

Tue Apr 13, 3:04am

Tue Apr 13, 2:04am

Tue Apr 13, 1:04am

Tue Apr 13, 12:05am

Mon Apr 12, 11:04pm

Mon Apr 12, 10:04pm

Mon Apr 12, 9:04pm

Mon Apr 12, 8:04pm

Mon Apr 12, 7:05pm

Mon Apr 12, 6:04pm

Mon Apr 12, 5:04pm

Mon Apr 12, 4:04pm

Mon Apr 12, 3:05pm

Mon Apr 12, 2:04pm

Mon Apr 12, 1:05pm

Mon Apr 12, 12:04pm

Mon Apr 12, 11:04am

Mon Apr 12, 10:04am

Mon Apr 12, 9:04am

Mon Apr 12, 8:04am

Mon Apr 12, 7:04am

Mon Apr 12, 6:04am

Mon Apr 12, 5:04am

Mon Apr 12, 4:04am

Mon Apr 12, 3:04am

Mon Apr 12, 2:04am

Mon Apr 12, 1:05am

Mon Apr 12, 12:04am

Sun Apr 11, 11:04pm

Sun Apr 11, 10:04pm

Sun Apr 11, 9:04pm

Sun Apr 11, 8:04pm

Sun Apr 11, 7:04pm

Sun Apr 11, 6:05pm

Sun Apr 11, 5:05pm

Sun Apr 11, 4:04pm

Sun Apr 11, 3:05pm

Sun Apr 11, 2:05pm

Sun Apr 11, 1:05pm

Sun Apr 11, 12:04pm

Sun Apr 11, 11:05am

Sun Apr 11, 10:05am

Sun Apr 11, 9:04am

Sun Apr 11, 8:04am

Sun Apr 11, 7:04am

Sun Apr 11, 6:04am

Sun Apr 11, 5:04am

Sun Apr 11, 4:04am

Sun Apr 11, 3:04am

Sun Apr 11, 1:05am

Sun Apr 11, 12:04am

Sat Apr 10, 11:05pm

Sat Apr 10, 10:04pm

Sat Apr 10, 9:04pm

Sat Apr 10, 8:04pm

Sat Apr 10, 7:05pm

Sat Apr 10, 6:04pm

Sat Apr 10, 5:04pm

Sat Apr 10, 4:04pm

Sat Apr 10, 3:04pm

Sat Apr 10, 2:05pm

Sat Apr 10, 1:04pm

Sat Apr 10, 12:04pm

Sat Apr 10, 11:04am

Sat Apr 10, 10:04am

Sat Apr 10, 9:04am

Sat Apr 10, 8:04am

Sat Apr 10, 7:04am

Sat Apr 10, 6:04am

Sat Apr 10, 5:04am

Sat Apr 10, 4:04am

Sat Apr 10, 3:04am

Sat Apr 10, 2:04am

Sat Apr 10, 1:05am

Sat Apr 10, 12:04am

Fri Apr 9, 11:04pm

Fri Apr 9, 10:05pm

Fri Apr 9, 9:04pm

Fri Apr 9, 8:05pm

Fri Apr 9, 7:05pm

Fri Apr 9, 6:04pm

Fri Apr 9, 5:04pm

Fri Apr 9, 4:05pm

Fri Apr 9, 3:05pm

Fri Apr 9, 2:04pm

Fri Apr 9, 1:04pm

Fri Apr 9, 12:04pm

Fri Apr 9, 11:05am

Meta data:

ID: c5a2c8da-674a-477d-b164-d7471115bbc6
Link: https://api.weather.gov/products/c5a2c8da-674a-477d-b164-d7471115bbc6